Simultaneous Nadir Overpasses (SNOs) Predictions

Prediction of SNOs between AQUA and NPP Satellite Orbit:

Table of predicted SNOs for the next 14.0 days since TLE Epoch: 3/9/2018
Index Date (AQUA) Time (AQUA) Lat,Lon (AQUA) SZA (AQUA ) Date (NPP) Time (NPP) Lat,Lon (NPP) SZA (NPP ) Distance(km) Time Diff (sec)
1 03/11/2018 06:22:24 -75.93, 143.45 78.62 03/11/2018 06:21:14 -75.94, 143.48 78.57 0.86 70
2 03/11/2018 07:11:31 76.80, -46.04 100.36 03/11/2018 07:11:39 76.80, -46.06 100.35 0.59 8
3 03/13/2018 22:38:49 -76.23, -99.74 80.04 03/13/2018 22:38:04 -76.23, -99.73 80.00 0.14 45
4 03/13/2018 23:27:57 77.04, 70.71 99.00 03/13/2018 23:28:30 77.04, 70.66 98.98 1.36 33
5 03/16/2018 14:55:12 -76.57, 17.25 81.50 03/16/2018 14:54:52 -76.57, 17.25 81.49 0.23 20
6 03/16/2018 15:44:22 77.27,-172.53 97.64 03/16/2018 15:45:20 77.27,-172.58 97.61 1.42 58
7 03/19/2018 06:22:32 75.73, -37.19 98.41 03/19/2018 06:21:21 75.72, -37.26 98.50 2.25 71
8 03/19/2018 07:11:36 -76.89, 134.26 82.96 03/19/2018 07:11:41 -76.89, 134.29 82.98 1.07 5
9 03/21/2018 22:38:54 76.15, 79.99 96.85 03/21/2018 22:38:08 76.14, 79.94 96.90 1.31 46




NCC Satellite Simultaneous Nadir Overpasses (SNOs) Prediction Service
